GW6733 Weather Reports


time (UTC)temp
C
wind
direction
speed
KPH
gust
KPH
rain 1hr
cm
rain 24hr
cm
rain mn
cm
humidity
%
barometer
mb
20260509224310 17 92 4.8 6.4 0.00 0.00 0.00 68 1009.9
20260509223807 17 91 4.8 4.8 0.00 0.00 0.00 67 1009.6
20260509223304 17 103 3.2 8.0 0.00 0.00 0.00 67 1009.9
20260509222801 17 73 4.8 6.4 0.00 0.00 0.00 66 1009.9
20260509222256 17 79 3.2 6.4 0.00 0.00 0.00 64 1009.6
20260509221752 17 65 0.0 3.2 0.00 0.00 0.00 65 1010.0
20260509221249 17 92 3.2 6.4 0.00 0.00 0.00 68 1009.7
20260509220745 17 93 1.6 4.8 0.00 0.00 0.00 69 1009.9
20260509220241 17 74 3.2 4.8 0.00 0.00 0.00 69 1010.2
20260509215736 17 68 3.2 4.8 0.00 0.00 0.00 73 1009.9
20260509215233 17 98 3.2 4.8 0.00 0.00 0.00 67 1009.9
20260509214731 17 63 3.2 6.4 0.00 0.00 0.00 69 1010.0
20260509214227 17 86 4.8 6.4 0.00 0.00 0.00 67 1009.9
20260509213724 17 62 3.2 4.8 0.00 0.00 0.00 67 1010.3
20260509213220 17 98 4.8 6.4 0.00 0.00 0.00 65 1010.1
20260509212718 17 92 6.4 6.4 0.00 0.00 0.00 65 1010.1
20260509212214 17 69 3.2 4.8 0.00 0.00 0.00 68 1010.2
20260509211710 16 74 3.2 9.7 0.00 0.00 0.00 70 1010.5
20260509211207 16 82 4.8 6.4 0.00 0.00 0.00 72 1010.3
20260509210704 16 85 4.8 6.4 0.00 0.00 0.00 71 1010.2
20260509210201 16 89 3.2 6.4 0.00 0.00 0.00 72 1010.7
20260509205701 16 78 4.8 4.8 0.00 0.00 0.00 73 1010.5
20260509205200 16 58 4.8 6.4 0.00 0.00 0.00 74 1010.6
20260509204657 16 81 3.2 4.8 0.00 0.00 0.00 72 1010.7
20260509204153 16 83 3.2 6.4 0.00 0.00 0.00 71 1010.6
20260509203649 16 72 3.2 4.8 0.00 0.00 0.00 72 1010.9
20260509203148 16 83 1.6 1.6 0.00 0.00 0.00 72 1010.7
20260509202643 16 44 0.0 3.2 0.00 0.00 0.00 76 1010.7
20260509202138 16 352 3.2 3.2 0.00 0.00 0.00 75 1010.7
20260509201634 16 57 3.2 4.8 0.00 0.00 0.00 71 1010.5
20260509201132 16 79 4.8 9.7 0.00 0.00 0.00 70 1010.3
20260509200627 16 87 3.2 6.4 0.00 0.00 0.00 69 1010.2
20260509200123 16 78 6.4 6.4 0.00 0.00 0.00 70 1010.5
20260509195619 16 39 0.0 1.6 0.00 0.00 0.00 66 1010.7
20260509195113 16 66 1.6 4.8 0.00 0.00 0.00 67 1010.5
20260509194612 16 72 3.2 4.8 0.00 0.00 0.00 72 1010.6
20260509194111 16 73 3.2 4.8 0.00 0.00 0.00 71 1010.6
20260509193606 16 83 4.8 6.4 0.00 0.00 0.00 68 1010.3
20260509193102 16 62 3.2 4.8 0.00 0.00 0.00 67 1010.9
20260509192559 16 62 1.6 3.2 0.00 0.00 0.00 67 1011.0
20260509192054 16 300 3.2 4.8 0.00 0.00 0.00 66 1010.8
20260509191555 16 180 3.2 8.0 0.00 0.00 0.00 65 1010.9
20260509191051 16 207 3.2 6.4 0.00 0.00 0.00 67 1010.8
20260509190548 16 94 4.8 4.8 0.00 0.00 0.00 66 1010.9
20260509190046 16 269 3.2 4.8 0.00 0.00 0.00 69 1010.9
20260509185543 16 47 4.8 8.0 0.00 0.00 0.00 69 1011.0
20260509185039 16 75 6.4 9.7 0.00 0.00 0.00 72 1011.1
20260509184537 16 82 4.8 4.8 0.00 0.00 0.00 73 1011.5
20260509184033 16 93 3.2 6.4 0.00 0.00 0.00 70 1011.6
20260509183529 16 74 3.2 8.0 0.00 0.00 0.00 73 1011.7
20260509183025 15 86 8.0 8.0 0.00 0.00 0.00 75 1011.7
20260509182521 15 76 8.0 9.7 0.00 0.00 0.00 76 1011.6
20260509182018 15 101 6.4 12.9 0.00 0.00 0.00 75 1011.6
20260509181517 15 228 3.2 8.0 0.00 0.00 0.00 78 1011.4
20260509181014 15 88 6.4 11.3 0.00 0.00 0.00 78 1011.6
20260509180509 15 120 14.5 16.1 0.00 0.00 0.00 79 1011.4
20260509180007 15 76 4.8 9.7 0.00 0.00 0.00 80 1011.6
20260509175502 15 112 4.8 6.4 0.00 0.00 0.00 82 1011.9
20260509174959 14 86 4.8 11.3 0.00 0.00 0.00 82 1011.9
20260509174455 14 89 4.8 4.8 0.00 0.00 0.00 82 1011.8
20260509173950 14 111 8.0 8.0 0.00 0.00 0.00 82 1011.9
20260509173444 13 67 3.2 4.8 0.00 0.00 0.00 83 1011.8
20260509172941 13 66 3.2 4.8 0.00 0.00 0.00 81 1011.8
20260509172438 13 71 3.2 3.2 0.00 0.00 0.00 81 1012.0
20260509171934 13 74 3.2 4.8 0.00 0.00 0.00 83 1012.1
20260509171430 13 54 3.2 4.8 0.00 0.00 0.00 85 1012.0
20260509170927 13 69 4.8 6.4 0.00 0.00 0.00 84 1012.2
20260509170422 13 71 3.2 3.2 0.00 0.00 0.00 85 1012.2
20260509165918 13 76 1.6 3.2 0.00 0.00 0.00 86 1012.0
20260509165412 13 80 3.2 6.4 0.00 0.00 0.00 85 1012.3
20260509164908 13 74 3.2 6.4 0.00 0.00 0.00 85 1012.3
20260509164404 13 87 3.2 6.4 0.00 0.00 0.00 86 1012.1
20260509163900 12 89 6.4 6.4 0.00 0.00 0.00 86 1012.3
20260509163357 12 100 4.8 6.4 0.00 0.00 0.00 87 1012.4
20260509162857 12 84 4.8 8.0 0.00 0.00 0.00 87 1012.5
20260509162355 12 110 1.6 8.0 0.00 0.00 0.00 88 1012.4
20260509161851 12 85 3.2 6.4 0.00 0.00 0.00 88 1012.5
20260509161348 12 79 6.4 6.4 0.00 0.00 0.00 89 1012.2
20260509160844 12 115 0.0 6.4 0.00 0.00 0.00 89 1012.5
20260509160340 12 71 3.2 8.0 0.00 0.00 0.00 89 1012.2
20260509155835 12 97 3.2 6.4 0.00 0.00 0.00 90 1012.1
20260509155332 12 79 3.2 8.0 0.00 0.00 0.00 89 1012.1
20260509154828 12 89 4.8 8.0 0.00 0.00 0.00 91 1011.9
20260509154324 11 101 4.8 4.8 0.00 0.00 0.00 91 1012.0
20260509153821 11 61 1.6 3.2 0.00 0.00 0.00 91 1012.1
20260509153318 11 89 3.2 4.8 0.00 0.00 0.00 91 1012.1
20260509152815 11 74 4.8 4.8 0.00 0.00 0.00 91 1012.4
20260509152311 11 64 3.2 4.8 0.00 0.00 0.00 91 1012.4
20260509151808 11 62 4.8 6.4 0.00 0.00 0.00 91 1012.6
20260509151304 11 43 4.8 4.8 0.00 0.00 0.00 90 1012.7
20260509150803 11 30 3.2 4.8 0.00 0.00 0.00 90 1013.1
20260509150301 11 46 3.2 4.8 0.00 0.00 0.00 89 1012.9
20260509145757 11 27 3.2 3.2 0.00 0.00 0.00 89 1012.9
20260509145257 11 29 3.2 3.2 0.00 0.00 0.00 88 1013.0
20260509144754 12 31 3.2 4.8 0.00 0.00 0.00 87 1012.6
20260509144251 12 46 3.2 4.8 0.00 0.00 0.00 86 1012.9
20260509143748 12 76 3.2 4.8 0.00 0.00 0.00 85 1012.8
20260509143245 12 76 3.2 4.8 0.00 0.00 0.00 84 1012.7
20260509142741 12 68 4.8 6.4 0.00 0.00 0.00 83 1012.6
20260509142237 12 91 3.2 4.8 0.00 0.00 0.00 82 1012.6
20260509141733 12 77 3.2 3.2 0.00 0.00 0.00 82 1012.9
20260509141231 12 86 3.2 3.2 0.00 0.00 0.00 81 1012.7
20260509140727 12 69 3.2 4.8 0.00 0.00 0.00 80 1012.9
20260509140225 12 84 3.2 4.8 0.00 0.00 0.00 80 1012.4
20260509135722 12 62 3.2 4.8 0.00 0.00 0.00 78 1012.3
20260509135220 12 42 3.2 4.8 0.00 0.00 0.00 78 1012.3
20260509134716 12 54 3.2 4.8 0.00 0.00 0.00 77 1012.5
20260509134214 12 68 4.8 4.8 0.00 0.00 0.00 76 1012.3
20260509133711 12 88 3.2 4.8 0.00 0.00 0.00 74 1012.5
20260509133208 12 70 3.2 3.2 0.00 0.00 0.00 76 1012.2
20260509132706 12 66 3.2 4.8 0.00 0.00 0.00 75 1012.4
20260509132204 12 76 4.8 4.8 0.00 0.00 0.00 76 1012.3
20260509131700 12 87 3.2 4.8 0.00 0.00 0.00 75 1012.4
20260509131157 12 74 3.2 4.8 0.00 0.00 0.00 77 1012.4
20260509130653 12 81 3.2 4.8 0.00 0.00 0.00 77 1012.3
20260509130149 12 101 3.2 4.8 0.00 0.00 0.00 77 1012.3
20260509125646 12 65 3.2 4.8 0.00 0.00 0.00 77 1011.9
20260509125143 12 72 4.8 6.4 0.00 0.00 0.00 75 1011.8
20260509124639 12 40 3.2 4.8 0.00 0.00 0.00 75 1012.0
20260509124136 12 152 3.2 4.8 0.00 0.00 0.00 74 1011.9
20260509123634 12 87 3.2 6.4 0.00 0.00 0.00 74 1011.8
20260509123131 12 97 3.2 6.4 0.00 0.00 0.00 74 1011.6
20260509122626 12 77 3.2 4.8 0.00 0.00 0.00 75 1011.4
20260509122124 12 69 3.2 3.2 0.00 0.00 0.00 74 1011.7
20260509121620 12 56 1.6 3.2 0.00 0.00 0.00 74 1011.7
20260509121118 12 132 0.0 3.2 0.00 0.00 0.00 74 1011.9
20260509120616 12 87 3.2 3.2 0.00 0.00 0.00 73 1011.9
20260509120114 12 81 3.2 3.2 0.00 0.00 0.00 77 1011.8
20260509115611 12 50 3.2 3.2 0.00 0.00 0.00 76 1012.0
20260509115109 12 50 0.0 1.6 0.00 0.00 0.00 74 1011.9
20260509114607 12 14 0.0 3.2 0.00 0.00 0.00 74 1011.9
20260509114106 11 64 3.2 3.2 0.00 0.00 0.00 74 1011.8
20260509113603 11 154 0.0 1.6 0.00 0.00 0.00 73 1012.0
20260509113100 11 67 3.2 3.2 0.00 0.00 0.00 73 1011.7
20260509112556 11 291 1.6 3.2 0.00 0.00 0.00 73 1011.9
20260509112054 11 79 3.2 3.2 0.00 0.00 0.00 73 1011.8
20260509111551 11 95 4.8 4.8 0.00 0.00 0.00 73 1011.5
20260509111048 11 319 4.8 4.8 0.00 0.00 0.00 73 1011.6
20260509110545 11 30 0.0 4.8 0.00 0.00 0.00 79 1011.5
20260509110042 11 96 4.8 6.4 0.00 0.00 0.00 76 1011.5
20260509105540 11 20 3.2 3.2 0.00 0.00 0.00 72 1011.5
20260509105037 11 183 0.0 4.8 0.00 0.00 0.00 73 1011.6
20260509104534 11 300 3.2 4.8 0.00 0.00 0.00 71 1011.7
20260509104031 11 313 3.2 4.8 0.00 0.00 0.00 77 1011.2
20260509103529 11 110 0.0 3.2 0.00 0.00 0.00 76 1011.4
20260509103027 11 44 4.8 4.8 0.00 0.00 0.00 73 1011.2
20260509102524 11 69 1.6 4.8 0.00 0.00 0.00 72 1011.4
20260509102020 11 0 0.0 4.8 0.00 0.00 0.00 72 1011.4
20260509101517 11 36 3.2 3.2 0.00 0.00 0.00 75 1011.5
20260509101014 11 58 3.2 4.8 0.00 0.00 0.00 77 1011.4
20260509100511 11 22 1.6 4.8 0.00 0.00 0.00 78 1011.3
20260509100008 11 97 3.2 4.8 0.00 0.00 0.00 76 1011.2
20260509095504 11 16 3.2 3.2 0.00 0.00 0.00 78 1011.4
20260509095002 10 43 0.0 4.8 0.00 0.00 0.00 77 1011.2
20260509094458 11 81 3.2 6.4 0.00 0.00 0.00 79 1011.3
20260509093956 11 86 3.2 4.8 0.00 0.00 0.00 77 1011.4
20260509093454 11 65 3.2 4.8 0.00 0.00 0.00 75 1011.5
20260509092951 11 30 3.2 3.2 0.00 0.00 0.00 74 1011.5
20260509092449 11 40 3.2 4.8 0.00 0.00 0.00 75 1011.2
20260509091948 11 39 1.6 3.2 0.00 0.00 0.00 81 1011.4
20260509091443 11 65 4.8 4.8 0.00 0.00 0.00 78 1011.5
20260509090941 11 58 3.2 4.8 0.00 0.00 0.00 76 1011.5
20260509090438 11 37 3.2 3.2 0.00 0.00 0.00 79 1011.5
20260509085936 11 53 3.2 3.2 0.00 0.00 0.00 79 1011.4
20260509085432 11 92 3.2 3.2 0.00 0.00 0.00 78 1011.5
20260509084928 11 67 3.2 4.8 0.00 0.00 0.00 78 1011.6
20260509084426 11 65 3.2 3.2 0.00 0.00 0.00 79 1011.6
20260509083923 11 67 3.2 3.2 0.00 0.00 0.00 79 1011.6
20260509083420 11 51 3.2 3.2 0.00 0.00 0.00 78 1011.6
20260509082917 11 70 3.2 6.4 0.00 0.00 0.00 75 1011.6
20260509082414 11 84 6.4 6.4 0.00 0.00 0.00 77 1011.7
20260509081911 11 66 1.6 3.2 0.00 0.00 0.00 76 1011.4
20260509081408 11 64 3.2 3.2 0.00 0.00 0.00 77 1011.7
20260509080906 11 58 3.2 4.8 0.00 0.00 0.00 76 1011.6
20260509080403 11 66 3.2 3.2 0.00 0.00 0.00 78 1011.6
20260509075902 11 50 3.2 3.2 0.00 0.00 0.00 78 1011.8
20260509075358 11 58 3.2 3.2 0.00 0.00 0.00 77 1011.6
20260509074856 11 92 1.6 3.2 0.00 0.00 0.00 78 1011.7
20260509074353 11 62 3.2 4.8 0.00 0.00 0.00 77 1011.7
20260509073849 11 67 1.6 3.2 0.00 0.00 0.00 79 1011.8
20260509073346 11 68 3.2 3.2 0.00 0.00 0.00 77 1011.6
20260509072842 11 49 3.2 3.2 0.00 0.00 0.00 76 1011.7
20260509072339 11 80 3.2 4.8 0.00 0.00 0.00 75 1011.7
20260509071836 11 81 3.2 3.2 0.00 0.00 0.00 76 1011.9
20260509071333 11 76 1.6 3.2 0.00 0.00 0.00 73 1011.9
20260509070830 11 51 3.2 4.8 0.00 0.00 0.00 75 1011.8
20260509070326 11 64 3.2 3.2 0.00 0.00 0.00 75 1012.1
20260509065823 11 55 3.2 4.8 0.00 0.00 0.00 72 1011.8
20260509065319 11 48 4.8 4.8 0.00 0.00 0.00 67 1012.0
20260509064815 11 57 3.2 3.2 0.00 0.00 0.00 70 1012.0
20260509064313 11 50 3.2 3.2 0.00 0.00 0.00 67 1011.8
20260509063810 11 47 3.2 4.8 0.00 0.00 0.00 68 1012.0
20260509063306 11 48 3.2 4.8 0.00 0.00 0.00 69 1011.8
20260509062804 11 52 3.2 4.8 0.00 0.00 0.00 72 1011.9
20260509062301 11 38 3.2 3.2 0.00 0.00 0.00 72 1012.1
20260509061758 11 48 3.2 3.2 0.00 0.00 0.00 74 1012.0
20260509061256 11 58 3.2 3.2 0.00 0.00 0.00 72 1012.1
20260509060752 11 43 3.2 4.8 0.00 0.00 0.00 72 1012.1
20260509060249 11 31 3.2 4.8 0.00 0.00 0.00 68 1011.9
20260509055745 11 35 3.2 4.8 0.00 0.00 0.00 75 1011.8
20260509055241 11 47 1.6 3.2 0.00 0.00 0.00 76 1011.9
20260509054737 11 64 3.2 4.8 0.00 0.00 0.00 74 1011.8
20260509054234 11 69 1.6 3.2 0.00 0.00 0.00 73 1011.9
20260509053733 11 65 3.2 4.8 0.00 0.00 0.00 70 1012.1
20260509053229 11 73 4.8 6.4 0.00 0.00 0.00 70 1012.3
20260509052727 11 80 4.8 4.8 0.00 0.00 0.00 75 1012.1
20260509052225 11 56 1.6 4.8 0.00 0.00 0.00 75 1012.3
20260509051722 11 73 3.2 3.2 0.00 0.00 0.00 75 1012.2
20260509051220 11 64 3.2 4.8 0.00 0.00 0.00 75 1012.4
20260509050717 11 72 3.2 3.2 0.00 0.00 0.00 74 1012.5
20260509050213 11 64 4.8 4.8 0.00 0.00 0.00 73 1012.6
20260509045711 11 76 3.2 3.2 0.00 0.00 0.00 74 1012.7
20260509045207 11 73 3.2 3.2 0.00 0.00 0.00 74 1012.3
20260509044705 12 46 3.2 3.2 0.00 0.00 0.00 73 1012.4
20260509044202 12 49 3.2 3.2 0.00 0.00 0.00 73 1012.7
20260509043658 12 72 3.2 3.2 0.00 0.00 0.00 71 1012.4
20260509043154 12 50 3.2 4.8 0.00 0.00 0.00 65 1012.7
20260509042651 12 53 3.2 3.2 0.00 0.00 0.00 70 1012.6
20260509042147 12 78 3.2 3.2 0.00 0.00 0.00 68 1012.8
20260509041643 12 39 3.2 3.2 0.00 0.00 0.00 67 1012.6
20260509041141 12 58 3.2 4.8 0.00 0.00 0.00 67 1012.9
20260509040639 12 64 3.2 3.2 0.00 0.00 0.00 63 1012.6
20260509040136 12 60 3.2 3.2 0.00 0.00 0.00 63 1012.8
20260509035633 12 20 1.6 3.2 0.00 0.00 0.00 72 1012.8
20260509035129 12 78 4.8 8.0 0.00 0.00 0.00 71 1012.9
20260509034627 12 83 6.4 6.4 0.00 0.00 0.00 65 1012.6
20260509034124 12 54 3.2 3.2 0.00 0.00 0.00 61 1012.8
20260509033621 13 87 4.8 4.8 0.00 0.00 0.00 64 1013.0
20260509033118 13 37 3.2 3.2 0.00 0.00 0.00 60 1012.9
20260509032615 12 17 3.2 4.8 0.00 0.00 0.00 61 1013.0
20260509032112 12 1 3.2 3.2 0.00 0.00 0.00 63 1013.1
20260509031610 12 11 3.2 4.8 0.00 0.00 0.00 66 1013.0
20260509031107 12 14 3.2 4.8 0.00 0.00 0.00 70 1013.0
20260509030605 12 50 4.8 4.8 0.00 0.00 0.00 65 1012.9
20260509025558 13 66 4.8 4.8 0.00 0.00 0.00 61 1013.1
20260509025054 13 66 0.0 3.2 0.00 0.00 0.00 59 1013.3
20260509024550 13 44 3.2 3.2 0.00 0.00 0.00 58 1012.9
20260509024046 13 23 3.2 3.2 0.00 0.00 0.00 56 1012.9
20260509023544 13 34 3.2 4.8 0.00 0.00 0.00 55 1013.0
20260509023040 13 38 4.8 4.8 0.00 0.00 0.00 56 1013.0
20260509022537 13 20 3.2 3.2 0.00 0.00 0.00 57 1013.1
20260509022035 13 78 3.2 3.2 0.00 0.00 0.00 59 1013.1
20260509021532 13 11 0.0 3.2 0.00 0.00 0.00 58 1013.3
20260509021028 13 40 3.2 4.8 0.00 0.00 0.00 58 1013.0
20260509020527 13 58 3.2 3.2 0.00 0.00 0.00 61 1013.2
20260509020023 13 49 1.6 3.2 0.00 0.00 0.00 57 1013.2
20260509015523 13 43 1.6 3.2 0.00 0.00 0.00 60 1012.9
20260509015019 13 132 0.0 1.6 0.00 0.00 0.00 61 1012.7
20260509014516 13 76 3.2 3.2 0.00 0.00 0.00 60 1012.7
20260509014012 13 51 3.2 4.8 0.00 0.00 0.00 57 1012.6
20260509013509 13 43 3.2 4.8 0.00 0.00 0.00 58 1012.8
20260509013005 14 35 3.2 3.2 0.00 0.00 0.00 57 1012.7
20260509012501 14 49 3.2 4.8 0.00 0.00 0.00 58 1012.6
20260509011958 14 37 3.2 3.2 0.00 0.00 0.00 56 1012.8
20260509011456 14 5 0.0 3.2 0.00 0.00 0.00 57 1012.9
20260509010953 14 76 1.6 3.2 0.00 0.00 0.00 57 1012.6
20260509010451 14 55 3.2 3.2 0.00 0.00 0.00 56 1012.6
20260509005947 14 47 3.2 4.8 0.00 0.00 0.00 54 1012.4
20260509005446 15 50 3.2 4.8 0.00 0.00 0.00 54 1012.4
20260509004945 15 49 3.2 4.8 0.00 0.00 0.00 53 1012.6
20260509004442 15 40 3.2 4.8 0.00 0.00 0.00 50 1012.5
20260509003940 15 30 0.0 3.2 0.00 0.00 0.00 51 1012.6
20260509003438 15 124 0.0 1.6 0.00 0.00 0.00 47 1012.6
20260509002935 16 269 0.0 6.4 0.00 0.00 0.00 46 1012.5
20260509002433 16 315 1.6 6.4 0.00 0.00 0.00 46 1012.5
20260509001930 16 69 0.0 4.8 0.00 0.00 0.00 45 1012.5
20260509001426 16 315 3.2 4.8 0.00 0.00 0.00 45 1012.6
20260509000923 16 51 1.6 8.0 0.00 0.00 0.00 45 1012.4
20260509000421 16 281 4.8 4.8 0.00 0.00 0.00 43 1012.5
20260508235916 16 157 0.0 9.7 0.00 0.00 0.00 43 1012.3
20260508235414 16 4 4.8 4.8 0.00 0.00 0.00 43 1012.3
20260508234911 17 322 0.0 3.2 0.00 0.00 0.00 43 1012.2
20260508234408 17 354 6.4 6.4 0.00 0.00 0.00 43 1012.0
20260508233906 17 276 12.9 14.5 0.00 0.00 0.00 43 1012.1
20260508233405 17 44 1.6 4.8 0.00 0.00 0.00 43 1012.0
20260508232901 17 215 0.0 3.2 0.00 0.00 0.00 43 1011.8
20260508232358 17 194 1.6 6.4 0.00 0.00 0.00 42 1011.8
20260508231856 17 307 4.8 4.8 0.00 0.00 0.00 43 1011.8
20260508231352 17 129 0.0 3.2 0.00 0.00 0.00 44 1011.8
20260508230849 17 1 1.6 3.2 0.00 0.00 0.00 43 1011.6
20260508230345 17 288 1.6 4.8 0.00 0.00 0.00 42 1011.9
20260508225843 17 45 3.2 6.4 0.00 0.00 0.00 45 1011.9
20260508225339 17 148 0.0 3.2 0.00 0.00 0.00 44 1011.9
20260508224838 17 93 1.6 3.2 0.00 0.00 0.00 41 1012.0